| time (UTC) | temp F | wind direction | speed knots | gust knots | rain 1hr in | rain 24hr in | rain mn in | humidity % | barometer mb |
| 20260506044501 | 64 | 33 | 5.2 | 11.3 | 0.00 | 0.00 | 0.00 | 77 | 1009.0 |
| 20260506044304 | 65 | 343 | 6.1 | 13.0 | 0.00 | 0.00 | 0.00 | 77 | 1008.1 |
| 20260506044003 | 65 | 5 | 6.1 | 11.3 | 0.00 | 0.00 | 0.00 | 77 | 1008.9 |
| 20260506043804 | 65 | 8 | 7.8 | 13.9 | 0.00 | 0.00 | 0.00 | 77 | 1007.9 |
| 20260506043504 | 65 | 350 | 6.1 | 11.3 | 0.00 | 0.00 | 0.00 | 77 | 1008.6 |
| 20260506043006 | 65 | 355 | 5.2 | 10.4 | 0.00 | 0.00 | 0.00 | 77 | 1008.6 |
| 20260506042804 | 66 | 1 | 6.1 | 13.0 | 0.00 | 0.00 | 0.00 | 77 | 1008.0 |
| 20260506042509 | 65 | 333 | 4.3 | 10.4 | 0.00 | 0.00 | 0.00 | 77 | 1008.7 |
| 20260506042305 | 66 | 347 | 5.2 | 8.7 | 0.00 | 0.00 | 0.00 | 76 | 1007.7 |
| 20260506042005 | 66 | 329 | 5.2 | 12.2 | 0.00 | 0.00 | 0.00 | 76 | 1008.4 |
| 20260506041006 | 67 | 5 | 5.2 | 9.6 | 0.00 | 0.00 | 0.00 | 76 | 1008.2 |
| 20260506040502 | 67 | 36 | 4.3 | 8.7 | 0.00 | 0.00 | 0.00 | 76 | 1008.2 |
| 20260506040304 | 68 | 357 | 6.1 | 10.4 | 0.00 | 0.00 | 0.00 | 76 | 1007.5 |
| 20260506040008 | 68 | 355 | 4.3 | 10.4 | 0.00 | 0.00 | 0.00 | 75 | 1008.3 |
| 20260506035803 | 68 | 346 | 5.2 | 7.8 | 0.00 | 0.00 | 0.00 | 76 | 1007.5 |
| 20260506035503 | 68 | 360 | 5.2 | 11.3 | 0.00 | 0.00 | 0.00 | 75 | 1008.3 |
| 20260506034804 | 69 | 1 | 7.0 | 12.2 | 0.00 | 0.00 | 0.00 | 75 | 1007.2 |
| 20260506034502 | 68 | 11 | 6.1 | 10.4 | 0.00 | 0.00 | 0.00 | 75 | 1008.2 |
| 20260506034005 | 69 | 340 | 6.1 | 10.4 | 0.00 | 0.00 | 0.00 | 75 | 1008.0 |
| 20260506033508 | 69 | 46 | 5.2 | 9.6 | 0.00 | 0.00 | 0.00 | 75 | 1007.8 |
| 20260506032306 | 69 | 8 | 7.8 | 12.2 | 0.00 | 0.00 | 0.00 | 74 | 1006.6 |
| 20260506032004 | 69 | 355 | 4.3 | 9.6 | 0.00 | 0.00 | 0.00 | 74 | 1007.3 |
| 20260506031303 | 70 | 349 | 5.2 | 10.4 | 0.00 | 0.00 | 0.00 | 74 | 1006.9 |
| 20260506031006 | 70 | 28 | 5.2 | 11.3 | 0.00 | 0.00 | 0.00 | 74 | 1007.6 |
| 20260506030509 | 70 | 325 | 6.1 | 11.3 | 0.00 | 0.00 | 0.00 | 75 | 1007.5 |
| 20260506025503 | 71 | 349 | 5.2 | 9.6 | 0.00 | 0.00 | 0.00 | 74 | 1007.1 |
| 20260506024505 | 72 | 17 | 6.1 | 11.3 | 0.00 | 0.00 | 0.00 | 73 | 1006.8 |
| 20260506024002 | 73 | 304 | 5.2 | 10.4 | 0.00 | 0.00 | 0.00 | 72 | 1006.7 |
| 20260506023804 | 73 | 341 | 7.0 | 11.3 | 0.00 | 0.00 | 0.00 | 72 | 1005.7 |
| 20260506023506 | 73 | 355 | 4.3 | 9.6 | 0.00 | 0.00 | 0.00 | 72 | 1006.4 |
| 20260506023304 | 74 | 11 | 6.1 | 11.3 | 0.00 | 0.00 | 0.00 | 72 | 1005.6 |
| 20260506023003 | 73 | 348 | 4.3 | 9.6 | 0.00 | 0.00 | 0.00 | 72 | 1006.3 |
| 20260506022500 | 73 | 336 | 3.5 | 8.7 | 0.00 | 0.00 | 0.00 | 72 | 1006.1 |
| 20260506022306 | 74 | 13 | 5.2 | 8.7 | 0.00 | 0.00 | 0.00 | 72 | 1005.2 |
| 20260506022003 | 73 | 15 | 3.5 | 7.0 | 0.00 | 0.00 | 0.00 | 72 | 1005.9 |
| 20260506021505 | 73 | 21 | 2.6 | 7.0 | 0.00 | 0.00 | 0.00 | 71 | 1005.9 |
| 20260506021304 | 74 | 6 | 3.5 | 7.0 | 0.00 | 0.00 | 0.00 | 71 | 1005.1 |
| 20260506021004 | 74 | 12 | 3.5 | 7.0 | 0.00 | 0.00 | 0.00 | 71 | 1005.8 |
| 20260506020502 | 74 | 5 | 2.6 | 7.0 | 0.00 | 0.00 | 0.00 | 71 | 1005.9 |
| 20260506020008 | 74 | 348 | 2.6 | 8.7 | 0.00 | 0.00 | 0.00 | 71 | 1005.8 |
| 20260506015804 | 74 | 352 | 3.5 | 8.7 | 0.00 | 0.00 | 0.00 | 70 | 1004.9 |
| 20260506015306 | 74 | 349 | 6.1 | 11.3 | 0.00 | 0.00 | 0.00 | 70 | 1005.2 |
| 20260506014504 | 74 | 355 | 5.2 | 9.6 | 0.00 | 0.00 | 0.00 | 69 | 1005.6 |
| 20260506014304 | 75 | 9 | 5.2 | 11.3 | 0.00 | 0.00 | 0.00 | 69 | 1004.6 |
| 20260506014010 | 74 | 339 | 5.2 | 9.6 | 0.00 | 0.00 | 0.00 | 69 | 1005.4 |
| 20260506013505 | 74 | 34 | 4.3 | 8.7 | 0.00 | 0.00 | 0.00 | 68 | 1005.2 |
| 20260506013305 | 75 | 1 | 6.1 | 8.7 | 0.00 | 0.00 | 0.00 | 68 | 1004.5 |
| 20260506012803 | 75 | 354 | 6.1 | 11.3 | 0.00 | 0.00 | 0.00 | 68 | 1005.0 |
| 20260506012506 | 75 | 341 | 5.2 | 10.4 | 0.00 | 0.00 | 0.00 | 68 | 1005.7 |
| 20260506012307 | 75 | 346 | 6.1 | 13.0 | 0.00 | 0.00 | 0.00 | 68 | 1005.0 |
| 20260506012007 | 75 | 12 | 6.1 | 12.2 | 0.00 | 0.00 | 0.00 | 67 | 1005.7 |
| 20260506011804 | 76 | 1 | 5.2 | 12.2 | 0.00 | 0.00 | 0.00 | 68 | 1004.6 |
| 20260506011507 | 75 | 338 | 7.0 | 12.2 | 0.00 | 0.00 | 0.00 | 68 | 1005.3 |
| 20260506011009 | 76 | 16 | 6.1 | 10.4 | 0.00 | 0.00 | 0.00 | 68 | 1004.9 |
| 20260506010505 | 77 | 23 | 5.2 | 9.6 | 0.00 | 0.00 | 0.00 | 67 | 1005.1 |
| 20260506010303 | 78 | 1 | 6.1 | 11.3 | 0.00 | 0.00 | 0.00 | 67 | 1004.0 |
| 20260506010003 | 77 | 355 | 5.2 | 9.6 | 0.00 | 0.00 | 0.00 | 67 | 1004.7 |
| 20260506005505 | 78 | 11 | 5.2 | 7.8 | 0.00 | 0.00 | 0.00 | 67 | 1004.8 |
| 20260506005306 | 78 | 4 | 6.1 | 8.7 | 0.00 | 0.00 | 0.00 | 66 | 1004.1 |
| 20260506005005 | 78 | 15 | 4.3 | 7.8 | 0.00 | 0.00 | 0.00 | 66 | 1005.0 |
| 20260506004503 | 78 | 17 | 3.5 | 5.2 | 0.00 | 0.00 | 0.00 | 66 | 1004.9 |
| 20260506004303 | 79 | 5 | 4.3 | 7.8 | 0.00 | 0.00 | 0.00 | 65 | 1004.1 |
| 20260506003502 | 79 | 333 | 3.5 | 7.8 | 0.00 | 0.00 | 0.00 | 65 | 1004.6 |
| 20260506003006 | 80 | 54 | 2.6 | 7.8 | 0.00 | 0.00 | 0.00 | 64 | 1004.7 |
| 20260506002502 | 80 | 355 | 1.7 | 7.0 | 0.00 | 0.00 | 0.00 | 63 | 1004.8 |
| 20260506002306 | 81 | 322 | 1.7 | 5.2 | 0.00 | 0.00 | 0.00 | 63 | 1003.7 |
| 20260506002005 | 81 | 283 | 1.7 | 5.2 | 0.00 | 0.00 | 0.00 | 63 | 1004.9 |
| 20260506001501 | 82 | 348 | 1.7 | 5.2 | 0.00 | 0.00 | 0.00 | 61 | 1004.8 |
| 20260506001304 | 82 | 337 | 2.6 | 7.8 | 0.00 | 0.00 | 0.00 | 60 | 1003.7 |
| 20260506000504 | 83 | 265 | 2.6 | 7.8 | 0.00 | 0.00 | 0.00 | 67 | 1004.3 |
| 20260506000304 | 83 | 256 | 2.6 | 7.8 | 0.00 | 0.00 | 0.00 | 65 | 1003.4 |
| 20260506000004 | 82 | 223 | 3.5 | 7.8 | 0.00 | 0.00 | 0.00 | 63 | 1004.1 |
| 20260505235505 | 82 | 217 | 2.6 | 8.7 | 0.00 | 0.00 | 0.00 | 73 | 1003.8 |
| 20260505234501 | 81 | 191 | 5.2 | 8.7 | 0.00 | 0.00 | 0.00 | 74 | 1003.6 |
| 20260505234005 | 82 | 171 | 5.2 | 9.6 | 0.00 | 0.00 | 0.00 | 74 | 1003.3 |
| 20260505233804 | 82 | 160 | 6.1 | 10.4 | 0.00 | 0.00 | 0.00 | 73 | 1002.9 |
| 20260505233508 | 82 | 165 | 6.1 | 9.6 | 0.00 | 0.00 | 0.00 | 73 | 1003.5 |
| 20260505233004 | 82 | 152 | 6.1 | 12.2 | 0.00 | 0.00 | 0.00 | 72 | 1003.6 |
| 20260505232804 | 83 | 173 | 7.8 | 13.9 | 0.00 | 0.00 | 0.00 | 73 | 1002.8 |
| 20260505232005 | 83 | 177 | 7.0 | 12.2 | 0.00 | 0.00 | 0.00 | 72 | 1003.4 |
| 20260505231304 | 83 | 171 | 7.8 | 12.2 | 0.00 | 0.00 | 0.00 | 72 | 1002.8 |
| 20260505230502 | 83 | 179 | 6.1 | 12.2 | 0.00 | 0.00 | 0.00 | 72 | 1003.4 |
| 20260505230007 | 83 | 168 | 6.1 | 9.6 | 0.00 | 0.00 | 0.00 | 71 | 1003.2 |
| 20260505225501 | 83 | 145 | 5.2 | 10.4 | 0.00 | 0.00 | 0.00 | 72 | 1003.3 |
| 20260505224504 | 83 | 201 | 7.0 | 10.4 | 0.00 | 0.00 | 0.00 | 72 | 1003.3 |
| 20260505224003 | 83 | 159 | 7.0 | 11.3 | 0.00 | 0.00 | 0.00 | 71 | 1003.3 |
| 20260505223507 | 83 | 169 | 7.0 | 11.3 | 0.00 | 0.00 | 0.00 | 70 | 1003.2 |
| 20260505223304 | 84 | 171 | 8.7 | 14.8 | 0.00 | 0.00 | 0.00 | 70 | 1002.4 |
| 20260505223007 | 84 | 154 | 6.1 | 13.0 | 0.00 | 0.00 | 0.00 | 70 | 1003.0 |
| 20260505222503 | 84 | 171 | 6.1 | 11.3 | 0.00 | 0.00 | 0.00 | 70 | 1002.9 |
| 20260505222305 | 84 | 161 | 7.8 | 13.9 | 0.00 | 0.00 | 0.00 | 70 | 1002.4 |
| 20260505222003 | 84 | 167 | 6.1 | 10.4 | 0.00 | 0.00 | 0.00 | 69 | 1003.1 |
| 20260505221505 | 84 | 150 | 5.2 | 10.4 | 0.00 | 0.00 | 0.00 | 68 | 1003.2 |
| 20260505221303 | 85 | 167 | 7.8 | 13.0 | 0.00 | 0.00 | 0.00 | 68 | 1002.5 |
| 20260505221005 | 85 | 131 | 5.2 | 10.4 | 0.00 | 0.00 | 0.00 | 67 | 1003.1 |
| 20260505220804 | 86 | 158 | 6.1 | 10.4 | 0.00 | 0.00 | 0.00 | 66 | 1002.5 |
| 20260505220502 | 86 | 160 | 5.2 | 9.6 | 0.00 | 0.00 | 0.00 | 66 | 1003.1 |
| 20260505220304 | 87 | 165 | 6.1 | 12.2 | 0.00 | 0.00 | 0.00 | 66 | 1002.4 |
| 20260505220004 | 87 | 148 | 4.3 | 9.6 | 0.00 | 0.00 | 0.00 | 64 | 1003.1 |
| 20260505215804 | 88 | 194 | 6.1 | 8.7 | 0.00 | 0.00 | 0.00 | 61 | 1002.3 |
| 20260505214504 | 87 | 223 | 4.3 | 7.8 | 0.00 | 0.00 | 0.00 | 60 | 1003.2 |
| 20260505214303 | 87 | 215 | 5.2 | 11.3 | 0.00 | 0.00 | 0.00 | 61 | 1002.5 |
| 20260505213804 | 87 | 188 | 5.2 | 8.7 | 0.00 | 0.00 | 0.00 | 63 | 1002.6 |
| 20260505213501 | 88 | 155 | 5.2 | 8.7 | 0.00 | 0.00 | 0.00 | 62 | 1003.3 |
| 20260505213304 | 88 | 159 | 6.1 | 11.3 | 0.00 | 0.00 | 0.00 | 61 | 1002.6 |
| 20260505213005 | 88 | 211 | 5.2 | 8.7 | 0.00 | 0.00 | 0.00 | 60 | 1003.2 |
| 20260505212504 | 88 | 171 | 4.3 | 7.8 | 0.00 | 0.00 | 0.00 | 62 | 1003.3 |
| 20260505212305 | 88 | 202 | 6.1 | 10.4 | 0.00 | 0.00 | 0.00 | 60 | 1002.8 |
| 20260505211804 | 88 | 230 | 5.2 | 11.3 | 0.00 | 0.00 | 0.00 | 60 | 1002.8 |
| 20260505211501 | 88 | 236 | 6.1 | 13.0 | 0.00 | 0.00 | 0.00 | 60 | 1003.5 |
| 20260505211004 | 87 | 191 | 6.1 | 13.0 | 0.00 | 0.00 | 0.00 | 60 | 1003.4 |
| 20260505210804 | 88 | 207 | 7.8 | 15.6 | 0.00 | 0.00 | 0.00 | 60 | 1002.8 |
| 20260505210008 | 87 | 187 | 6.1 | 12.2 | 0.00 | 0.00 | 0.00 | 61 | 1003.4 |
| 20260505205500 | 87 | 205 | 7.0 | 13.0 | 0.00 | 0.00 | 0.00 | 59 | 1003.6 |
| 20260505205305 | 88 | 235 | 7.0 | 14.8 | 0.00 | 0.00 | 0.00 | 60 | 1003.0 |
| 20260505205006 | 87 | 244 | 7.8 | 16.5 | 0.00 | 0.00 | 0.00 | 60 | 1003.7 |
| 20260505204504 | 88 | 226 | 6.1 | 16.5 | 0.00 | 0.00 | 0.00 | 59 | 1003.7 |
| 20260505204304 | 88 | 239 | 8.7 | 20.9 | 0.00 | 0.00 | 0.00 | 60 | 1003.2 |
| 20260505203504 | 87 | 248 | 7.0 | 12.2 | 0.00 | 0.00 | 0.00 | 61 | 1003.8 |
| 20260505203011 | 87 | 215 | 6.1 | 11.3 | 0.00 | 0.00 | 0.00 | 63 | 1003.8 |
| 20260505202502 | 86 | 203 | 7.8 | 13.0 | 0.00 | 0.00 | 0.00 | 62 | 1003.8 |
| 20260505202009 | 86 | 221 | 7.8 | 13.0 | 0.00 | 0.00 | 0.00 | 61 | 1004.0 |
| 20260505201804 | 87 | 217 | 9.6 | 17.4 | 0.00 | 0.00 | 0.00 | 62 | 1003.2 |
| 20260505201503 | 86 | 171 | 7.0 | 15.6 | 0.00 | 0.00 | 0.00 | 62 | 1004.0 |
| 20260505201005 | 86 | 211 | 6.1 | 15.6 | 0.00 | 0.00 | 0.00 | 63 | 1004.0 |
| 20260505200804 | 86 | 217 | 6.1 | 13.9 | 0.00 | 0.00 | 0.00 | 63 | 1003.2 |
| 20260505200503 | 86 | 220 | 7.0 | 14.8 | 0.00 | 0.00 | 0.00 | 65 | 1004.0 |
| 20260505195305 | 86 | 217 | 7.8 | 20.0 | 0.00 | 0.00 | 0.00 | 65 | 1003.3 |
| 20260505195006 | 85 | 196 | 7.0 | 15.6 | 0.00 | 0.00 | 0.00 | 65 | 1004.1 |
| 20260505194804 | 86 | 216 | 7.8 | 13.0 | 0.00 | 0.00 | 0.00 | 64 | 1003.3 |
| 20260505194505 | 85 | 237 | 5.2 | 9.6 | 0.00 | 0.00 | 0.00 | 65 | 1004.1 |
| 20260505194304 | 86 | 206 | 7.0 | 12.2 | 0.00 | 0.00 | 0.00 | 65 | 1003.4 |
| 20260505193804 | 85 | 181 | 7.0 | 11.3 | 0.00 | 0.00 | 0.00 | 66 | 1003.3 |
| 20260505193504 | 84 | 195 | 7.0 | 13.9 | 0.00 | 0.00 | 0.00 | 67 | 1004.1 |
| 20260505193010 | 84 | 202 | 6.1 | 13.9 | 0.00 | 0.00 | 0.00 | 68 | 1004.1 |
| 20260505192804 | 85 | 224 | 7.8 | 17.4 | 0.00 | 0.00 | 0.00 | 67 | 1003.4 |
| 20260505192501 | 84 | 169 | 6.1 | 13.9 | 0.00 | 0.00 | 0.00 | 66 | 1004.1 |
| 20260505192305 | 85 | 211 | 7.8 | 12.2 | 0.00 | 0.00 | 0.00 | 67 | 1003.5 |
| 20260505192003 | 84 | 181 | 6.1 | 11.3 | 0.00 | 0.00 | 0.00 | 68 | 1004.2 |
| 20260505191804 | 84 | 211 | 7.0 | 13.9 | 0.00 | 0.00 | 0.00 | 68 | 1003.5 |
| 20260505191502 | 83 | 209 | 7.0 | 11.3 | 0.00 | 0.00 | 0.00 | 68 | 1004.1 |
| 20260505191001 | 83 | 228 | 7.8 | 11.3 | 0.00 | 0.00 | 0.00 | 67 | 1004.3 |
| 20260505190804 | 83 | 217 | 8.7 | 14.8 | 0.00 | 0.00 | 0.00 | 68 | 1003.6 |
| 20260505190304 | 83 | 210 | 8.7 | 17.4 | 0.00 | 0.00 | 0.00 | 68 | 1003.6 |
| 20260505190014 | 83 | 222 | 7.0 | 13.9 | 0.00 | 0.00 | 0.00 | 68 | 1004.2 |
| 20260505185505 | 83 | 213 | 6.1 | 13.0 | 0.00 | 0.00 | 0.00 | 68 | 1004.4 |
| 20260505185006 | 83 | 236 | 7.8 | 13.9 | 0.00 | 0.00 | 0.00 | 69 | 1004.5 |
| 20260505184006 | 82 | 240 | 7.8 | 12.2 | 0.00 | 0.00 | 0.00 | 68 | 1004.4 |
| 20260505183506 | 82 | 194 | 7.0 | 13.9 | 0.00 | 0.00 | 0.00 | 68 | 1004.5 |
| 20260505183004 | 82 | 222 | 7.8 | 15.6 | 0.00 | 0.00 | 0.00 | 69 | 1004.5 |
| 20260505182504 | 82 | 186 | 7.8 | 15.6 | 0.00 | 0.00 | 0.00 | 68 | 1004.4 |
| 20260505182306 | 82 | 205 | 10.4 | 15.6 | 0.00 | 0.00 | 0.00 | 68 | 1003.7 |
| 20260505182006 | 82 | 247 | 6.1 | 11.3 | 0.00 | 0.00 | 0.00 | 68 | 1004.5 |
| 20260505181804 | 83 | 209 | 8.7 | 14.8 | 0.00 | 0.00 | 0.00 | 68 | 1003.8 |
| 20260505181502 | 82 | 220 | 7.0 | 13.0 | 0.00 | 0.00 | 0.00 | 68 | 1004.6 |
| 20260505181004 | 82 | 221 | 7.0 | 13.0 | 0.00 | 0.00 | 0.00 | 68 | 1004.6 |
| 20260505180804 | 83 | 204 | 10.4 | 14.8 | 0.00 | 0.00 | 0.00 | 67 | 1003.9 |
| 20260505180505 | 82 | 196 | 7.0 | 12.2 | 0.00 | 0.00 | 0.00 | 67 | 1004.7 |
| 20260505180006 | 82 | 174 | 7.8 | 13.0 | 0.00 | 0.00 | 0.00 | 68 | 1004.7 |
| 20260505175503 | 82 | 187 | 7.8 | 14.8 | 0.00 | 0.00 | 0.00 | 68 | 1004.6 |
| 20260505175005 | 82 | 217 | 7.0 | 14.8 | 0.00 | 0.00 | 0.00 | 68 | 1004.7 |
| 20260505174503 | 81 | 174 | 7.8 | 13.9 | 0.00 | 0.00 | 0.00 | 68 | 1004.8 |
| 20260505174304 | 82 | 210 | 8.7 | 20.0 | 0.00 | 0.00 | 0.00 | 68 | 1004.1 |
| 20260505174005 | 82 | 178 | 7.0 | 13.9 | 0.00 | 0.00 | 0.00 | 68 | 1004.9 |
| 20260505173504 | 82 | 225 | 7.8 | 13.0 | 0.00 | 0.00 | 0.00 | 69 | 1004.8 |
| 20260505173304 | 82 | 203 | 8.7 | 15.6 | 0.00 | 0.00 | 0.00 | 69 | 1004.0 |
| 20260505173004 | 81 | 203 | 7.0 | 12.2 | 0.00 | 0.00 | 0.00 | 69 | 1004.8 |
| 20260505172007 | 81 | 229 | 8.7 | 15.6 | 0.00 | 0.00 | 0.00 | 71 | 1004.8 |
| 20260505171503 | 80 | 193 | 8.7 | 15.6 | 0.00 | 0.00 | 0.00 | 70 | 1004.9 |
| 20260505171304 | 81 | 223 | 11.3 | 17.4 | 0.00 | 0.00 | 0.00 | 70 | 1004.1 |
| 20260505171004 | 80 | 208 | 7.8 | 15.6 | 0.00 | 0.00 | 0.00 | 71 | 1004.8 |
| 20260505170501 | 80 | 202 | 7.8 | 15.6 | 0.00 | 0.00 | 0.00 | 71 | 1005.0 |
| 20260505165500 | 80 | 200 | 7.0 | 12.2 | 0.00 | 0.00 | 0.00 | 71 | 1004.8 |
| 20260505165306 | 81 | 211 | 10.4 | 14.8 | 0.00 | 0.00 | 0.00 | 71 | 1004.1 |
| 20260505165004 | 80 | 190 | 7.0 | 15.6 | 0.00 | 0.00 | 0.00 | 72 | 1004.7 |
| 20260505164504 | 80 | 167 | 7.8 | 16.5 | 0.00 | 0.00 | 0.00 | 72 | 1004.9 |
| 20260505164304 | 80 | 211 | 12.2 | 20.9 | 0.00 | 0.00 | 0.00 | 71 | 1004.0 |
| 20260505164003 | 80 | 200 | 7.8 | 16.5 | 0.00 | 0.00 | 0.00 | 71 | 1004.9 |
| 20260505163804 | 80 | 215 | 10.4 | 15.6 | 0.00 | 0.00 | 0.00 | 71 | 1004.0 |
| 20260505163501 | 80 | 213 | 8.7 | 16.5 | 0.00 | 0.00 | 0.00 | 72 | 1004.8 |
| 20260505163304 | 80 | 198 | 10.4 | 21.7 | 0.00 | 0.00 | 0.00 | 72 | 1004.0 |
| 20260505163005 | 79 | 181 | 7.8 | 16.5 | 0.00 | 0.00 | 0.00 | 72 | 1004.8 |
| 20260505162803 | 80 | 206 | 9.6 | 17.4 | 0.00 | 0.00 | 0.00 | 72 | 1004.0 |
| 20260505162306 | 80 | 194 | 8.7 | 15.6 | 0.00 | 0.00 | 0.00 | 72 | 1004.0 |
| 20260505162004 | 79 | 212 | 8.7 | 15.6 | 0.00 | 0.00 | 0.00 | 73 | 1004.6 |
| 20260505161804 | 79 | 205 | 12.2 | 18.2 | 0.00 | 0.00 | 0.00 | 72 | 1003.9 |
| 20260505161001 | 79 | 190 | 7.8 | 13.9 | 0.00 | 0.00 | 0.00 | 74 | 1004.5 |
| 20260505160804 | 79 | 203 | 9.6 | 13.9 | 0.00 | 0.00 | 0.00 | 73 | 1003.6 |
| 20260505160504 | 78 | 186 | 7.8 | 16.5 | 0.00 | 0.00 | 0.00 | 74 | 1004.5 |
| 20260505153003 | 76 | 196 | 7.8 | 13.9 | 0.00 | 0.00 | 0.00 | 77 | 1004.6 |
| 20260505152804 | 76 | 188 | 7.8 | 13.0 | 0.00 | 0.00 | 0.00 | 78 | 1004.1 |
| 20260505152500 | 76 | 189 | 7.8 | 15.6 | 0.00 | 0.00 | 0.00 | 78 | 1004.7 |
| 20260505152305 | 76 | 208 | 9.6 | 17.4 | 0.00 | 0.00 | 0.00 | 77 | 1004.1 |
| 20260505152007 | 76 | 226 | 8.7 | 16.5 | 0.00 | 0.00 | 0.00 | 78 | 1004.7 |
| 20260505151804 | 76 | 201 | 12.2 | 20.9 | 0.00 | 0.00 | 0.00 | 78 | 1003.9 |
| 20260505151500 | 75 | 190 | 7.0 | 16.5 | 0.00 | 0.00 | 0.00 | 78 | 1004.7 |
| 20260505151304 | 76 | 199 | 7.8 | 13.0 | 0.00 | 0.00 | 0.00 | 79 | 1003.9 |
| 20260505150505 | 75 | 217 | 7.8 | 15.6 | 0.00 | 0.00 | 0.00 | 79 | 1004.8 |
| 20260505150304 | 75 | 199 | 9.6 | 17.4 | 0.00 | 0.00 | 0.00 | 79 | 1004.2 |
| 20260505140503 | 73 | 178 | 7.0 | 15.6 | 0.00 | 0.00 | 0.00 | 82 | 1004.6 |
| 20260505140304 | 73 | 211 | 7.8 | 20.0 | 0.00 | 0.00 | 0.00 | 82 | 1003.8 |
| 20260505125001 | 71 | 201 | 7.0 | 11.3 | 0.00 | 0.00 | 0.00 | 84 | 1004.5 |
| 20260505124503 | 71 | 203 | 7.0 | 13.9 | 0.00 | 0.00 | 0.00 | 84 | 1004.3 |
| 20260505124003 | 71 | 234 | 7.8 | 13.9 | 0.00 | 0.00 | 0.00 | 84 | 1004.1 |
| 20260505123501 | 71 | 219 | 7.0 | 11.3 | 0.00 | 0.00 | 0.00 | 84 | 1004.1 |
| 20260505123005 | 71 | 202 | 6.1 | 12.2 | 0.00 | 0.00 | 0.00 | 84 | 1004.0 |
| 20260505122504 | 71 | 232 | 6.1 | 12.2 | 0.00 | 0.00 | 0.00 | 84 | 1004.1 |
| 20260505122001 | 71 | 210 | 6.1 | 13.0 | 0.00 | 0.00 | 0.00 | 84 | 1004.0 |
| 20260505121804 | 71 | 193 | 8.7 | 15.6 | 0.00 | 0.00 | 0.00 | 83 | 1003.4 |
| 20260505121502 | 71 | 239 | 6.1 | 13.0 | 0.00 | 0.00 | 0.00 | 84 | 1004.0 |
| 20260505121304 | 71 | 213 | 6.1 | 10.4 | 0.00 | 0.00 | 0.00 | 84 | 1003.3 |
| 20260505121004 | 71 | 186 | 6.1 | 9.6 | 0.00 | 0.00 | 0.00 | 83 | 1004.0 |
| 20260505120804 | 71 | 207 | 8.7 | 13.0 | 0.00 | 0.00 | 0.00 | 84 | 1003.3 |
| 20260505120506 | 71 | 169 | 6.1 | 13.0 | 0.00 | 0.00 | 0.00 | 83 | 1003.9 |
| 20260505120303 | 71 | 206 | 7.0 | 13.0 | 0.00 | 0.00 | 0.00 | 83 | 1003.4 |
| 20260505120007 | 71 | 221 | 6.1 | 13.0 | 0.00 | 0.00 | 0.00 | 83 | 1003.9 |
| 20260505115007 | 71 | 211 | 7.0 | 13.0 | 0.00 | 0.00 | 0.00 | 83 | 1003.9 |
| 20260505114001 | 71 | 211 | 7.0 | 13.9 | 0.00 | 0.00 | 0.00 | 83 | 1003.7 |
| 20260505113804 | 71 | 203 | 10.4 | 14.8 | 0.00 | 0.00 | 0.00 | 83 | 1002.9 |
| 20260505113500 | 71 | 195 | 7.0 | 12.2 | 0.00 | 0.00 | 0.00 | 83 | 1003.6 |
| 20260505113304 | 71 | 184 | 7.8 | 15.6 | 0.00 | 0.00 | 0.00 | 83 | 1002.9 |
| 20260505113005 | 71 | 224 | 7.8 | 13.0 | 0.00 | 0.00 | 0.00 | 83 | 1003.6 |
| 20260505112504 | 71 | 178 | 7.8 | 13.0 | 0.00 | 0.00 | 0.00 | 83 | 1003.5 |
| 20260505112305 | 71 | 200 | 10.4 | 17.4 | 0.00 | 0.00 | 0.00 | 83 | 1002.9 |
| 20260505112007 | 71 | 212 | 7.0 | 13.9 | 0.00 | 0.00 | 0.00 | 83 | 1003.5 |
| 20260505111504 | 71 | 175 | 7.8 | 14.8 | 0.00 | 0.00 | 0.00 | 83 | 1003.6 |
| 20260505111304 | 71 | 219 | 9.6 | 20.0 | 0.00 | 0.00 | 0.00 | 83 | 1002.9 |
| 20260505111001 | 71 | 194 | 7.8 | 14.8 | 0.00 | 0.00 | 0.00 | 83 | 1003.6 |
| 20260505110501 | 71 | 186 | 7.0 | 11.3 | 0.00 | 0.00 | 0.00 | 83 | 1003.6 |
| 20260505110304 | 71 | 190 | 7.0 | 13.9 | 0.00 | 0.00 | 0.00 | 83 | 1002.8 |
| 20260505102006 | 71 | 196 | 7.0 | 20.0 | 0.00 | 0.00 | 0.00 | 83 | 1003.8 |
| 20260505101804 | 71 | 197 | 10.4 | 26.1 | 0.00 | 0.00 | 0.00 | 83 | 1003.2 |
| 20260505101304 | 71 | 204 | 7.8 | 13.9 | 0.00 | 0.00 | 0.00 | 83 | 1003.2 |
| 20260505101002 | 71 | 209 | 7.8 | 13.9 | 0.00 | 0.00 | 0.00 | 83 | 1003.8 |
| 20260505100501 | 71 | 184 | 7.8 | 14.8 | 0.00 | 0.00 | 0.00 | 83 | 1003.7 |
| 20260505100001 | 71 | 196 | 7.0 | 14.8 | 0.00 | 0.00 | 0.00 | 83 | 1003.7 |
| 20260505095305 | 71 | 209 | 8.7 | 18.2 | 0.00 | 0.00 | 0.00 | 83 | 1003.3 |
| 20260505095007 | 71 | 190 | 7.8 | 17.4 | 0.00 | 0.00 | 0.00 | 83 | 1003.8 |
| 20260505094804 | 71 | 203 | 11.3 | 20.0 | 0.00 | 0.00 | 0.00 | 83 | 1003.1 |
| 20260505094004 | 71 | 212 | 7.8 | 14.8 | 0.00 | 0.00 | 0.00 | 83 | 1003.9 |
| 20260505093503 | 71 | 239 | 7.8 | 14.8 | 0.00 | 0.00 | 0.00 | 83 | 1003.9 |
| 20260505093304 | 71 | 200 | 8.7 | 14.8 | 0.00 | 0.00 | 0.00 | 83 | 1003.4 |
| 20260505093006 | 71 | 180 | 7.8 | 13.0 | 0.00 | 0.00 | 0.00 | 83 | 1004.0 |
| 20260505092501 | 71 | 201 | 7.8 | 14.8 | 0.00 | 0.00 | 0.00 | 83 | 1004.1 |
| 20260505092305 | 71 | 191 | 11.3 | 18.2 | 0.00 | 0.00 | 0.00 | 83 | 1003.5 |
| 20260505092003 | 71 | 198 | 7.8 | 14.8 | 0.00 | 0.00 | 0.00 | 83 | 1004.0 |
| 20260505091506 | 71 | 181 | 7.8 | 14.8 | 0.00 | 0.00 | 0.00 | 83 | 1004.0 |
| 20260505091003 | 71 | 174 | 7.8 | 14.8 | 0.00 | 0.00 | 0.00 | 83 | 1004.0 |
| 20260505090804 | 71 | 192 | 8.7 | 20.0 | 0.00 | 0.00 | 0.00 | 83 | 1003.4 |
| 20260505090502 | 71 | 201 | 7.8 | 14.8 | 0.00 | 0.00 | 0.00 | 83 | 1004.0 |
| 20260505090304 | 71 | 200 | 8.7 | 18.2 | 0.00 | 0.00 | 0.00 | 83 | 1003.4 |
| 20260505090007 | 71 | 211 | 8.7 | 14.8 | 0.00 | 0.00 | 0.00 | 83 | 1003.9 |
| 20260505085804 | 71 | 198 | 9.6 | 18.2 | 0.00 | 0.00 | 0.00 | 83 | 1003.4 |
| 20260505085500 | 71 | 184 | 7.8 | 14.8 | 0.00 | 0.00 | 0.00 | 83 | 1003.9 |
| 20260505085305 | 71 | 188 | 10.4 | 20.0 | 0.00 | 0.00 | 0.00 | 83 | 1003.4 |
| 20260505085005 | 71 | 184 | 8.7 | 18.2 | 0.00 | 0.00 | 0.00 | 83 | 1003.9 |
| 20260505084503 | 71 | 215 | 8.7 | 18.2 | 0.00 | 0.00 | 0.00 | 83 | 1004.0 |
| 20260505084303 | 71 | 206 | 11.3 | 20.9 | 0.00 | 0.00 | 0.00 | 83 | 1003.3 |
| 20260505084003 | 71 | 179 | 8.7 | 16.5 | 0.00 | 0.00 | 0.00 | 83 | 1003.9 |
| 20260505083804 | 71 | 191 | 10.4 | 18.2 | 0.00 | 0.00 | 0.00 | 83 | 1003.4 |
| 20260505082804 | 71 | 197 | 11.3 | 17.4 | 0.00 | 0.00 | 0.00 | 83 | 1003.4 |
| 20260505082025 | 71 | 215 | 8.7 | 17.4 | 0.00 | 0.00 | 0.00 | 83 | 1004.0 |
| 20260505081502 | 71 | 236 | 8.7 | 17.4 | 0.00 | 0.00 | 0.00 | 83 | 1004.0 |
| 20260505081304 | 71 | 199 | 11.3 | 18.2 | 0.00 | 0.00 | 0.00 | 83 | 1003.5 |
| 20260505081005 | 71 | 227 | 8.7 | 14.8 | 0.00 | 0.00 | 0.00 | 83 | 1004.0 |
| 20260505080804 | 71 | 195 | 12.2 | 20.0 | 0.00 | 0.00 | 0.00 | 82 | 1003.5 |
| 20260505080007 | 71 | 165 | 8.7 | 16.5 | 0.00 | 0.00 | 0.00 | 82 | 1004.2 |
| 20260505075804 | 71 | 206 | 11.3 | 17.4 | 0.00 | 0.00 | 0.00 | 82 | 1003.6 |
| 20260505075502 | 71 | 186 | 7.8 | 16.5 | 0.00 | 0.00 | 0.00 | 82 | 1004.3 |
| 20260505075304 | 71 | 202 | 8.7 | 18.2 | 0.00 | 0.00 | 0.00 | 82 | 1003.7 |
| 20260505075003 | 71 | 194 | 7.0 | 15.6 | 0.00 | 0.00 | 0.00 | 82 | 1004.3 |
| 20260505074804 | 71 | 206 | 7.8 | 20.9 | 0.00 | 0.00 | 0.00 | 82 | 1004.0 |
| 20260505074304 | 71 | 203 | 8.7 | 14.8 | 0.00 | 0.00 | 0.00 | 82 | 1004.0 |
| 20260505074003 | 71 | 198 | 7.0 | 13.9 | 0.00 | 0.00 | 0.00 | 82 | 1004.7 |
| 20260505073502 | 71 | 198 | 7.0 | 16.5 | 0.00 | 0.00 | 0.00 | 81 | 1004.7 |
| 20260505073304 | 71 | 198 | 7.8 | 13.9 | 0.00 | 0.00 | 0.00 | 81 | 1004.0 |
| 20260505073001 | 71 | 199 | 7.8 | 16.5 | 0.00 | 0.00 | 0.00 | 81 | 1004.8 |
| 20260505072503 | 71 | 185 | 8.7 | 15.6 | 0.00 | 0.00 | 0.00 | 81 | 1004.9 |
| 20260505072305 | 72 | 200 | 10.4 | 17.4 | 0.00 | 0.00 | 0.00 | 81 | 1004.1 |
| 20260505072004 | 71 | 213 | 8.7 | 15.6 | 0.00 | 0.00 | 0.00 | 81 | 1004.9 |
| 20260505071804 | 72 | 199 | 10.4 | 18.2 | 0.00 | 0.00 | 0.00 | 80 | 1004.2 |
| 20260505071504 | 71 | 169 | 7.8 | 15.6 | 0.00 | 0.00 | 0.00 | 80 | 1004.9 |
| 20260505071303 | 72 | 203 | 11.3 | 20.9 | 0.00 | 0.00 | 0.00 | 80 | 1004.3 |
| 20260505071000 | 71 | 165 | 8.7 | 15.6 | 0.00 | 0.00 | 0.00 | 80 | 1005.0 |
| 20260505070804 | 72 | 197 | 8.7 | 20.0 | 0.00 | 0.00 | 0.00 | 80 | 1004.3 |
| 20260505070459 | 72 | 185 | 8.7 | 15.6 | 0.00 | 0.00 | 0.00 | 80 | 1005.1 |
| 20260505070007 | 71 | 195 | 7.8 | 15.6 | 0.00 | 0.00 | 0.00 | 80 | 1005.1 |
| 20260505065004 | 71 | 185 | 7.0 | 14.8 | 0.00 | 0.00 | 0.00 | 80 | 1005.3 |
| 20260505064008 | 71 | 234 | 7.8 | 13.0 | 0.00 | 0.00 | 0.00 | 80 | 1005.3 |
| 20260505063804 | 72 | 194 | 7.8 | 15.6 | 0.00 | 0.00 | 0.00 | 79 | 1004.5 |
| 20260505063303 | 72 | 189 | 9.6 | 14.8 | 0.00 | 0.00 | 0.00 | 79 | 1004.5 |
| 20260505063004 | 71 | 209 | 7.8 | 16.5 | 0.00 | 0.00 | 0.00 | 79 | 1005.2 |
| 20260505062803 | 72 | 196 | 10.4 | 17.4 | 0.00 | 0.00 | 0.00 | 79 | 1004.5 |
| 20260505062502 | 71 | 209 | 7.8 | 16.5 | 0.00 | 0.00 | 0.00 | 79 | 1005.2 |
| 20260505062304 | 72 | 196 | 11.3 | 17.4 | 0.00 | 0.00 | 0.00 | 79 | 1004.4 |
| 20260505061502 | 71 | 207 | 7.0 | 12.2 | 0.00 | 0.00 | 0.00 | 79 | 1005.4 |
| 20260505061304 | 72 | 207 | 11.3 | 15.6 | 0.00 | 0.00 | 0.00 | 79 | 1004.6 |
| 20260505060504 | 71 | 156 | 7.0 | 12.2 | 0.00 | 0.00 | 0.00 | 78 | 1005.4 |
| 20260505060304 | 72 | 193 | 7.8 | 13.9 | 0.00 | 0.00 | 0.00 | 79 | 1004.9 |
| 20260505055804 | 72 | 190 | 9.6 | 20.0 | 0.00 | 0.00 | 0.00 | 78 | 1004.8 |
| 20260505055507 | 71 | 191 | 7.0 | 14.8 | 0.00 | 0.00 | 0.00 | 78 | 1005.5 |
| 20260505055000 | 71 | 217 | 7.0 | 11.3 | 0.00 | 0.00 | 0.00 | 78 | 1005.6 |
| 20260505054804 | 72 | 187 | 9.6 | 14.8 | 0.00 | 0.00 | 0.00 | 78 | 1004.9 |
| 20260505054502 | 71 | 208 | 7.0 | 11.3 | 0.00 | 0.00 | 0.00 | 78 | 1005.6 |
| 20260505054005 | 71 | 196 | 7.0 | 12.2 | 0.00 | 0.00 | 0.00 | 78 | 1005.6 |
| 20260505053502 | 72 | 169 | 7.0 | 13.9 | 0.00 | 0.00 | 0.00 | 77 | 1005.7 |
| 20260505053002 | 72 | 178 | 7.0 | 13.9 | 0.00 | 0.00 | 0.00 | 77 | 1005.8 |
| 20260505052804 | 72 | 204 | 9.6 | 17.4 | 0.00 | 0.00 | 0.00 | 77 | 1005.2 |
| 20260505052501 | 72 | 176 | 7.8 | 14.8 | 0.00 | 0.00 | 0.00 | 77 | 1005.7 |
| 20260505052304 | 72 | 186 | 8.7 | 17.4 | 0.00 | 0.00 | 0.00 | 77 | 1005.2 |
| 20260505052002 | 72 | 210 | 7.8 | 14.8 | 0.00 | 0.00 | 0.00 | 77 | 1005.7 |
| 20260505051803 | 72 | 197 | 10.4 | 17.4 | 0.00 | 0.00 | 0.00 | 77 | 1005.3 |
| 20260505051500 | 71 | 155 | 6.1 | 10.4 | 0.00 | 0.00 | 0.00 | 77 | 1005.9 |
| 20260505051304 | 72 | 184 | 7.0 | 13.9 | 0.00 | 0.00 | 0.00 | 77 | 1005.3 |
| 20260505051001 | 71 | 167 | 5.2 | 11.3 | 0.00 | 0.00 | 0.00 | 77 | 1005.9 |
| 20260505050459 | 71 | 163 | 5.2 | 10.4 | 0.00 | 0.00 | 0.00 | 77 | 1005.9 |
| 20260505050304 | 72 | 194 | 7.8 | 13.9 | 0.00 | 0.00 | 0.00 | 77 | 1005.2 |